Tracking 26951 objects as of 3-Feb-2023
HD Live streaming from Space Station
objects crossing your sky now

SL-12 R/B(2)

Track SL-12 R/B(2) now!


NORAD ID: 26557
Int'l Code: 2000-059D
Perigee: 7,385.1 km
Apogee: 35,604.4 km
Inclination: 14.1 °
Period: 771.6 minutes
Semi major axis: 27865 km
RCS: 24.2849 m2 (large)
Launch date: October 1, 2000
Source: Commonwealth of Independent States (former USSR) (CIS)
Launch site: TYURATAM MISSILE AND SPACE COMPLEX (TTMTR)

Note: This is a ROCKET BODY
Your satellite tracking list
Your tracking list is empty




NASA's NSSDC Master Catalog

Two Line Element Set (TLE):
1 26557U 00059D   23034.58170986 -.00000072  00000-0  00000+0 0  9994
2 26557  14.1422 212.3350 5063430 176.9637 200.0063  1.86636394152338
Source of the keplerian elements: AFSPC